Погода Красные Баки

Хотите узнать прогноз погоды Красные Баки? Тогда Вам сюда: Погода Красные Баки

Поиск расширенной информации на нашем сайте:

Полезная информация:

Новости сайта



02.01.2020
Опубликован Долгосрочный прогноз погоды по городам России и ближнего зарубежья на январь 2020 года.
Карты: Прогноз на январь и февраль 2020 года, Сравнение прогнозируемой аномалии приземной температуры воздуха на январь 2020 года по разным моделям.




Погода Красные Баки - сегодня

Время (UTC), дата Ветер
(°,м/с) 
Видим.   Явления Облачность Т
(°С)
Тd
(°С)
f(%) Тe
(°С)
Pmin
(гПа)
dP
(гПа)
Po
(мм)
O2
(г/м3)
Тmin Tmax R s Состояние
почвы
21 29.11.20 130 (ЮВ) 2-5{06}  10 км    10/0 средняя 
[As op]
-0.1 -1.1 93 -1  1041  0.5  770  311           
00 30.11.20 140 (ЮВ) 3-5{06}  10 км    10/0 средняя 
[As op]
+0.2 -0.9 92 -2  1041  770  310           
03 30.11.20 130 (ЮВ) 3-5{06}  10 км    10/10 600 м 
[Ns]
+0.3 -1 91 -1  1040.7  -0.3  770  310  -0.6      12  равномерный
сухой снег
100% 
06 30.11.20 140 (ЮВ) 4-7{07}  20000 м    8/8 600 м 
[Sc]
-0.9 -2.6 88 -3  1040.8  770  312  -0.9         
09 30.11.20 140 (ЮВ) 3-5{07}  20000 м    6/0 средняя 
[Ac trans]
-1.2 -4.3 79 -3  1040.2  -0.6  769  312           
12 30.11.20 160 (Ю) 5-9{09}  20000 м    10/0 средняя 
[As op]
-3.1 -6.3 79 -7  1040  -0.3  769  314           
15 30.11.20 150 (ЮВ) 4-6{11}  10 км    10/10 1000 м 
[Sc]
-5.8 -7.8 86 -9  1040.1  769  318    +0.3       
18 30.11.20 140 (ЮВ) 2-4{07}  10 км    6/0 средняя 
[Ac trans]
-7.1 -8.8 88 -9  1039.4  -0.8  769  319           
21 30.11.20 150 (ЮВ) 3-4{05}  10 км    10/0 средняя 
[Ac und]
-7 -9.6 82 -10  1039.5  0.1  769  319           
00 01.12.20 150 (ЮВ) 3-5{06}  10 км    10/0 средняя 
[Ac und]
-7.6 -10.3 81 -10  1039.8  0.3  769  320           
03 01.12.20 150 (ЮВ) 3-5{05}  10 км    4/0 средняя 
[Ac trans]
-8 -11 79 -11  1040.3  0.4  769  320  -8.4      12  равномерный
сухой снег
100% 
06 01.12.20 150 (ЮВ) 3-7{07}  20000 м    8/0 верхняя 
[Ci fib]
-8.2 -11.1 80 -11  1040.7  0.4  770  321           
09 01.12.20 160 (Ю) 3-8{07}  20000 м    9/0 верхняя 
[Ci fib]
-5.5 -10.2 69 -8  1040.5  770  317           
12 01.12.20 150 (ЮВ) 3-6{08}  20000 м    9/0 верхняя 
[Cc]
-6.4 -10.1 75 -9  1040.2  -0.3  769  318           
15 01.12.20 160 (Ю) 4-8{07}  10 км    9/0 верхняя 
[Ci fib]
-7.2 -10.2 79 -11  1039.9  -0.4  769  319    -5.5       
21 01.12.20 160 (Ю) 2-3{06}  10 км    9/0 верхняя 
[Ci fib]
-8.9 -11.2 83 -11  1040.5  -0.1  769  322           
00 02.12.20 160 (Ю) 3-6{06}  10 км    10/0 средняя 
[As trans]
-8.2 -10.8 81 -11  1040.3  -0.2  769  321           
03 02.12.20 170 (Ю) 2-3{06}  10 км  слаб. снег  10/0 средняя 
[As op]
-8.2 -10.4 84 -10  1040.3  0.1  769  321  -8.9    0.0  12  равномерный
сухой снег
100% 
06 02.12.20 160 (Ю) 2-5{06}  20000 м  {снег}  10/0 средняя 
[As op]
-8.3 -10.7 83 -10  1040.7  0.3  770  321           
09 02.12.20 180 (Ю) 2-4{05}  20000 м    10/0 средняя 
[Ac trans]
-7.9 -11.1 78 -9  1040.8  0.1  770  320           
12 02.12.20 150 (ЮВ) 2-3{04}  20000 м    10/0 средняя 
[Ac trans]
-8.2 -11.1 80 -10  1040.9  0.1  770  321           
15 02.12.20 170 (Ю) 1-1{03}  10 км    10/0 средняя 
[Ac trans]
-12.1 -13.7 88 -12  1040.9  770  326    -7.8  0.4     
18 02.12.20 160 (Ю) 1-1{01}  10 км    6/0 верхняя 
[Ci fib]
-15.7 -17.6 85 -16  1041.5  0.2  770  331           
21 02.12.20 160 (Ю) 1-2{01}  10 км    8/0 средняя 
[Ac trans]
-16 -17.9 85 -16  1041.3  -0.2  770  331           
00 03.12.20 170 (Ю) 1-0{02}  10 км    8/0 средняя 
[Ac trans]
-16.3 -18.1 86 -16  1041.7  0.4  770  331           
Время (UTC), дата Ветер
(°,м/с) 
Видим.   Явления Облачность Т
(°С)
Тd
(°С)
f(%) Тe
(°С)
Pmin
(гПа)
dP
(гПа)
Po
(мм)
O2
(г/м3)
Тmin Tmax R s Состояние
почвы

Для получения пояснительной информации подведите курсор к названию столбца.

ПОГОДА Красные Баки - архив

Всё, что Вы хотите узнать о погоде Красные Баки - удобно и подробно!

Выберите нужную дату (начиная с 1 января 2019* года) и нажмите кнопку "Найти".
Будут отображены архивные сводки погоды по пункту Красные Баки, начиная с указанной даты.


Отображать данные в формате CSV (для использования в таблицах Excel)


Внимание! Наш архив погоды предназначен исключительно для личного некоммерческого использования в познавательных целях. Если Вам необходимы официальные справки о состоянии погоды (для производственных, юридических, коммерческих и т.п. целей), обращайтесь в органы Росгидромета.

*Примечание: данная дата относится к архиву по метеостанциям СССР (Россия, СНГ, Балтия).
Архив по метеостанциям Зарубежной Европы и Азии (кроме Китая) хранится 10 дней, по другим регионам земного шара (Китай, Африка, Америка, Австралия, Океания) - 1 день.

Красные Баки - район местоположения метеостанции


Название, широта, долгота, высота метеостанции:
Красные Баки 57.1°ш. 45.2°д. 110 м над ур. моря [Российская Федерация]

Дополнительная информация

В oтличие oт бoльшинства пoгoдных сайтoв мы публикуем пoдрoбную метеoинфoрмацию в детальнoм прoфессиoнальнoм фoрмате.

Характеристики температуры и влажнoсти вoздуха измеряются на высoте 2 м в тени вдали oт зданий и деревьев.
Скoрoсть ветра измеряется на высoте 10 м (на урoвне рoста челoвека скoрoсть ветра ниже в 1.5-2 раза). Если метеoстанция нахoдится в гoрoде или в лесу, тo скoрoсть ветра занижена на 2-4 м/с пo сравнению с oткрытым местoм. Скoрoсть ветра над акватoриями крупных рек и oзёр, а также на вершинах хoлмoв на 2-5 м/с выше, чем в oбычных услoвиях.
Атмoсфернoе давление в разных тoчках местнoсти мoжет значительнo oтличаться oт давления на метеoстанции, в зависимoсти oт услoвий рельефа (при пoдъёме на 10 м давление пoнижается примернo на 1 мм рт.ст.).